FW5810 Weather Reports


Display with metric or nautical units.
time (UTC)temp
F
wind
direction
speed
MPH
gust
MPH
rain 1hr
in
rain 24hr
in
rain mn
in
humidity
%
barometer
mb
20210617204932 79 334 0.0 5.0 0.00 0.00 0.00 38 1017.5
20210617204427 79 259 1.0 3.0 0.00 0.00 0.00 41 1017.5
20210617203923 79 297 0.0 4.0 0.00 0.00 0.00 38 1017.5
20210617203408 78 348 3.0 5.0 0.00 0.00 0.00 43 1017.3
20210617202905 78 292 1.0 4.0 0.00 0.00 0.00 41 1017.5
20210617202357 78 296 3.0 5.0 0.00 0.00 0.00 38 1017.7
20210617201850 78 162 2.0 11.0 0.00 0.00 0.00 41 1017.5
20210617201345 78 275 2.0 5.0 0.00 0.00 0.00 39 1017.6
20210617200838 77 168 4.0 5.0 0.00 0.00 0.00 41 1017.7
20210617200327 77 243 3.0 5.0 0.00 0.00 0.00 40 1017.9
20210617195825 77 153 1.0 3.0 0.00 0.00 0.00 40 1017.9
20210617195320 78 205 3.0 5.0 0.00 0.00 0.00 40 1018.0
20210617194818 78 314 0.0 3.0 0.00 0.00 0.00 39 1018.1
20210617194309 78 314 2.0 4.0 0.00 0.00 0.00 38 1018.0
20210617193807 78 314 1.0 3.0 0.00 0.00 0.00 38 1018.1
20210617193306 78 277 1.0 5.0 0.00 0.00 0.00 40 1018.0
20210617192802 78 297 1.0 5.0 0.00 0.00 0.00 42 1018.1
20210617192301 77 303 1.0 4.0 0.00 0.00 0.00 43 1018.2
20210617191753 77 222 5.0 5.0 0.00 0.00 0.00 37 1018.4
20210617191249 77 253 1.0 3.0 0.00 0.00 0.00 41 1018.2
20210617190739 77 159 5.0 9.0 0.00 0.00 0.00 39 1018.3
20210617190235 78 173 7.0 9.0 0.00 0.00 0.00 40 1018.6
20210617185732 78 301 3.0 4.0 0.00 0.00 0.00 38 1018.4
20210617185229 78 278 3.0 5.0 0.00 0.00 0.00 40 1018.5
20210617184724 78 293 2.0 3.0 0.00 0.00 0.00 40 1018.5
20210617184219 77 296 1.0 3.0 0.00 0.00 0.00 40 1018.6
20210617183715 77 270 5.0 7.0 0.00 0.00 0.00 39 1018.7
20210617183208 77 170 3.0 4.0 0.00 0.00 0.00 39 1018.8
20210617182707 77 125 6.0 7.0 0.00 0.00 0.00 37 1018.8
20210617182207 77 318 2.0 5.0 0.00 0.00 0.00 40 1018.9
20210617181703 77 264 1.0 4.0 0.00 0.00 0.00 41 1018.9
20210617181157 77 306 2.0 3.0 0.00 0.00 0.00 39 1018.8
20210617180650 77 339 1.0 4.0 0.00 0.00 0.00 38 1018.8
20210617180149 76 172 2.0 5.0 0.00 0.00 0.00 40 1019.1
20210617175644 76 229 3.0 5.0 0.00 0.00 0.00 40 1019.1
20210617175142 76 308 2.0 8.0 0.00 0.00 0.00 39 1019.3
20210617174638 75 349 0.0 4.0 0.00 0.00 0.00 40 1019.0
20210617174132 75 211 1.0 3.0 0.00 0.00 0.00 39 1019.1
20210617173630 75 299 3.0 7.0 0.00 0.00 0.00 42 1019.3
20210617173125 75 299 1.0 7.0 0.00 0.00 0.00 42 1019.1
20210617172622 75 301 2.0 5.0 0.00 0.00 0.00 42 1019.2
20210617172118 76 175 3.0 7.0 0.00 0.00 0.00 41 1019.4
20210617171616 76 253 3.0 4.0 0.00 0.00 0.00 42 1019.6
20210617171111 75 294 0.0 4.0 0.00 0.00 0.00 40 1019.4
20210617170610 75 286 3.0 5.0 0.00 0.00 0.00 42 1019.3
20210617170105 76 263 2.0 5.0 0.00 0.00 0.00 41 1019.4
20210617165600 75 275 2.0 7.0 0.00 0.00 0.00 40 1019.5
20210617165058 75 130 2.0 3.0 0.00 0.00 0.00 44 1019.8
20210617164555 75 198 3.0 3.0 0.00 0.00 0.00 42 1019.7
20210617164049 74 312 3.0 4.0 0.00 0.00 0.00 40 1019.7
20210617163549 74 297 2.0 3.0 0.00 0.00 0.00 44 1019.6
20210617163042 74 283 3.0 5.0 0.00 0.00 0.00 41 1019.7
20210617162542 76 304 2.0 7.0 0.00 0.00 0.00 41 1019.7
20210617162036 76 298 2.0 4.0 0.00 0.00 0.00 43 1019.8
20210617161531 74 321 1.0 4.0 0.00 0.00 0.00 42 1019.5
20210617161026 75 323 2.0 3.0 0.00 0.00 0.00 39 1019.4
20210617160525 74 298 2.0 3.0 0.00 0.00 0.00 44 1019.6
20210617160024 74 313 3.0 5.0 0.00 0.00 0.00 42 1019.6
20210617155523 75 307 0.0 3.0 0.00 0.00 0.00 43 1019.9
20210617155017 74 298 0.0 1.0 0.00 0.00 0.00 42 1019.9
20210617154515 74 222 2.0 4.0 0.00 0.00 0.00 41 1019.7
20210617154012 74 238 0.0 4.0 0.00 0.00 0.00 41 1019.8
20210617153508 73 259 1.0 3.0 0.00 0.00 0.00 42 1019.9
20210617153004 74 285 2.0 3.0 0.00 0.00 0.00 43 1019.6
20210617152503 72 264 0.0 1.0 0.00 0.00 0.00 42 1019.7
20210617151958 73 290 1.0 4.0 0.00 0.00 0.00 42 1019.8
20210617151452 73 355 1.0 3.0 0.00 0.00 0.00 42 1019.8
20210617150949 73 221 2.0 3.0 0.00 0.00 0.00 42 1019.9
20210617150448 72 313 4.0 5.0 0.00 0.00 0.00 43 1020.1
20210617145943 72 321 2.0 3.0 0.00 0.00 0.00 44 1020.1
20210617145437 72 286 2.0 4.0 0.00 0.00 0.00 45 1019.9
20210617144929 71 224 1.0 1.0 0.00 0.00 0.00 45 1019.9
20210617144425 72 275 4.0 5.0 0.00 0.00 0.00 45 1019.8
20210617143918 71 312 0.0 3.0 0.00 0.00 0.00 44 1019.9
20210617143415 71 321 2.0 4.0 0.00 0.00 0.00 45 1019.8
20210617142911 71 316 1.0 3.0 0.00 0.00 0.00 45 1019.8
20210617142409 70 251 1.0 1.0 0.00 0.00 0.00 44 1019.7
20210617141906 71 298 2.0 5.0 0.00 0.00 0.00 44 1019.6
20210617141358 70 168 1.0 3.0 0.00 0.00 0.00 49 1019.6
20210617140856 70 162 3.0 4.0 0.00 0.00 0.00 47 1019.6
20210617140353 70 266 1.0 3.0 0.00 0.00 0.00 51 1019.8
20210617135851 69 221 2.0 5.0 0.00 0.00 0.00 52 1019.6
20210617135341 69 152 2.0 4.0 0.00 0.00 0.00 50 1019.6
20210617134841 69 263 1.0 3.0 0.00 0.00 0.00 48 1019.7
20210617134333 69 282 0.0 3.0 0.00 0.00 0.00 51 1019.6
20210617133830 69 222 2.0 4.0 0.00 0.00 0.00 55 1019.6
20210617133326 68 106 1.0 1.0 0.00 0.00 0.00 51 1019.7
20210617132822 67 306 1.0 3.0 0.00 0.00 0.00 52 1019.7
20210617132316 67 259 1.0 4.0 0.00 0.00 0.00 51 1019.7
20210617131812 67 332 1.0 4.0 0.00 0.00 0.00 53 1019.7
20210617131309 67 162 2.0 3.0 0.00 0.00 0.00 52 1019.7
20210617130804 65 249 0.0 1.0 0.00 0.00 0.00 58 1019.8
20210617130303 64 306 0.0 3.0 0.00 0.00 0.00 59 1019.7
20210617125758 63 274 2.0 3.0 0.00 0.00 0.00 61 1019.6
20210617125256 63 303 1.0 4.0 0.00 0.00 0.00 63 1019.5
20210617124755 62 330 0.0 3.0 0.00 0.00 0.00 65 1019.5
20210617124252 62 315 1.0 3.0 0.00 0.00 0.00 65 1019.6
20210617123748 62 263 0.0 3.0 0.00 0.00 0.00 68 1019.4
20210617123247 60 311 0.0 0.0 0.00 0.00 0.00 70 1019.5
20210617122743 60 300 0.0 0.0 0.00 0.00 0.00 70 1019.7
20210617122240 59 245 0.0 0.0 0.00 0.00 0.00 72 1019.7
20210617121735 57 325 0.0 0.0 0.00 0.00 0.00 77 1019.7
20210617121230 55 328 0.0 0.0 0.00 0.00 0.00 82 1019.8
20210617120728 53 305 0.0 0.0 0.00 0.00 0.00 89 1019.6
20210617120224 52 311 0.0 0.0 0.00 0.00 0.00 92 1019.5
20210617115722 51 257 0.0 0.0 0.00 0.00 0.00 95 1019.7
20210617115216 50 274 0.0 0.0 0.00 0.00 0.00 97 1019.7
20210617114715 49 272 0.0 0.0 0.00 0.00 0.00 97 1019.9
20210617114212 48 286 0.0 0.0 0.00 0.00 0.00 98 1019.9
20210617113706 48 285 0.0 0.0 0.00 0.00 0.00 98 1019.8
20210617113205 47 306 0.0 0.0 0.00 0.00 0.00 98 1019.9
20210617112652 46 310 0.0 0.0 0.00 0.00 0.00 98 1019.8
20210617112145 46 315 0.0 0.0 0.00 0.00 0.00 98 1019.8
20210617111639 46 315 0.0 0.0 0.00 0.00 0.00 98 1019.8
20210617111135 45 315 0.0 0.0 0.00 0.00 0.00 98 1019.7
20210617110635 45 315 0.0 0.0 0.00 0.00 0.00 98 1019.7
20210617110135 45 313 0.0 0.0 0.00 0.00 0.00 98 1019.7
20210617105629 44 326 0.0 0.0 0.00 0.00 0.00 98 1019.7
20210617105127 44 319 0.0 0.0 0.00 0.00 0.00 98 1019.6
20210617104620 43 319 0.0 0.0 0.00 0.00 0.00 98 1019.5
20210617104115 43 319 0.0 0.0 0.00 0.00 0.00 98 1019.4
20210617103610 43 327 0.0 0.0 0.00 0.00 0.00 98 1019.4
20210617103108 43 330 0.0 0.0 0.00 0.00 0.00 98 1019.1
20210617102606 43 306 0.0 0.0 0.00 0.00 0.00 98 1019.0
20210617102105 42 292 0.0 0.0 0.00 0.00 0.00 98 1019.1
20210617101600 42 315 0.0 0.0 0.00 0.00 0.00 98 1019.0
20210617101055 42 317 0.0 0.0 0.00 0.00 0.00 98 1019.1
20210617100549 42 321 0.0 0.0 0.00 0.00 0.00 98 1019.0
20210617100046 42 306 0.0 0.0 0.00 0.00 0.00 98 1018.8
20210617095542 42 306 0.0 0.0 0.00 0.00 0.00 98 1018.8
20210617095038 42 315 0.0 0.0 0.00 0.00 0.00 97 1019.0
20210617094536 42 316 0.0 0.0 0.00 0.00 0.00 97 1018.7
20210617094029 42 310 0.0 0.0 0.00 0.00 0.00 97 1018.9
20210617093524 42 307 0.0 0.0 0.00 0.00 0.00 98 1018.8
20210617093020 42 299 0.0 0.0 0.00 0.00 0.00 97 1018.7
20210617092517 42 303 0.0 0.0 0.00 0.00 0.00 97 1018.7
20210617092014 42 304 0.0 0.0 0.00 0.00 0.00 97 1018.6
20210617091512 42 313 0.0 0.0 0.00 0.00 0.00 97 1018.6
20210617091005 42 320 0.0 0.0 0.00 0.00 0.00 97 1018.8
20210617090503 43 319 0.0 0.0 0.00 0.00 0.00 97 1018.6
20210617085958 43 320 0.0 0.0 0.00 0.00 0.00 97 1018.5
20210617085446 43 313 0.0 0.0 0.00 0.00 0.00 97 1018.6
20210617084937 43 306 0.0 0.0 0.00 0.00 0.00 97 1018.6
20210617084433 43 297 0.0 0.0 0.00 0.00 0.00 97 1018.5
20210617083933 43 313 0.0 0.0 0.00 0.00 0.00 97 1018.6
20210617083431 43 314 0.0 0.0 0.00 0.00 0.00 97 1018.5
20210617082929 43 300 0.0 0.0 0.00 0.00 0.00 97 1018.8
20210617082427 43 309 0.0 0.0 0.00 0.00 0.00 97 1018.7
20210617081923 43 317 0.0 0.0 0.00 0.00 0.00 97 1018.9
20210617081417 43 317 0.0 0.0 0.00 0.00 0.00 97 1018.6
20210617080911 43 323 0.0 0.0 0.00 0.00 0.00 97 1018.8
20210617080408 43 314 0.0 0.0 0.00 0.00 0.00 97 1018.6
20210617075903 44 320 0.0 0.0 0.00 0.00 0.00 97 1018.7
20210617075400 44 321 0.0 0.0 0.00 0.00 0.00 97 1018.6
20210617074857 44 310 0.0 0.0 0.00 0.00 0.00 97 1018.7
20210617074355 44 313 0.0 0.0 0.00 0.00 0.00 97 1018.7
20210617073846 44 306 0.0 0.0 0.00 0.00 0.00 97 1018.5
20210617073343 44 287 0.0 0.0 0.00 0.00 0.00 97 1018.6
20210617072840 44 306 0.0 0.0 0.00 0.00 0.00 97 1018.6
20210617072336 44 303 0.0 0.0 0.00 0.00 0.00 97 1018.5
20210617071828 45 304 0.0 0.0 0.00 0.00 0.00 97 1018.5
20210617071320 45 282 0.0 0.0 0.00 0.00 0.00 97 1018.5
20210617070810 44 276 0.0 0.0 0.00 0.00 0.00 97 1018.6
20210617070305 44 299 0.0 0.0 0.00 0.00 0.00 97 1018.5
20210617065804 44 313 0.0 0.0 0.00 0.00 0.00 96 1018.7
20210617065305 44 314 0.0 0.0 0.00 0.00 0.00 96 1018.7
20210617064758 45 314 0.0 0.0 0.00 0.00 0.00 96 1018.5
20210617064253 45 306 0.0 0.0 0.00 0.00 0.00 96 1018.5
20210617063749 45 296 0.0 0.0 0.00 0.00 0.00 96 1018.6
20210617063245 45 306 0.0 0.0 0.00 0.00 0.00 96 1018.8
20210617062742 45 306 0.0 0.0 0.00 0.00 0.00 96 1018.7
20210617062232 45 305 0.0 0.0 0.00 0.00 0.00 96 1018.9
20210617061726 45 306 0.0 0.0 0.00 0.00 0.00 96 1018.6
20210617061219 45 306 0.0 0.0 0.00 0.00 0.00 96 1018.7
20210617060713 45 305 0.0 0.0 0.00 0.00 0.00 96 1018.6
20210617060206 45 303 0.0 0.0 0.00 0.00 0.00 96 1018.5
20210617055704 45 306 0.0 0.0 0.00 0.00 0.00 95 1018.7
20210617055201 45 310 0.0 0.0 0.00 0.00 0.00 95 1018.5
20210617054658 45 314 0.0 0.0 0.00 0.00 0.00 95 1018.5
20210617054153 46 313 0.0 0.0 0.00 0.00 0.00 95 1018.4
20210617053649 46 305 0.0 0.0 0.00 0.00 0.00 95 1018.3
20210617053145 46 309 0.0 0.0 0.00 0.00 0.00 95 1018.4
20210617052641 46 310 0.0 0.0 0.00 0.00 0.00 95 1018.9
20210617052135 46 312 0.0 0.0 0.00 0.00 0.00 95 1018.8
20210617051635 46 312 0.0 0.0 0.00 0.00 0.00 94 1018.9
20210617051132 46 311 0.0 0.0 0.00 0.00 0.00 94 1019.0
20210617050623 46 309 0.0 0.0 0.00 0.00 0.00 94 1019.2
20210617050122 46 309 0.0 0.0 0.00 0.00 0.00 94 1019.1
20210617045621 46 310 0.0 0.0 0.00 0.00 0.00 94 1019.2
20210617045119 47 312 0.0 0.0 0.00 0.00 0.00 93 1019.1
20210617044614 47 313 0.0 0.0 0.00 0.00 0.00 93 1019.2
20210617044114 47 311 0.0 0.0 0.00 0.00 0.00 93 1019.2
20210617043609 47 310 0.0 0.0 0.00 0.00 0.00 93 1019.2
20210617043104 47 311 0.0 0.0 0.00 0.00 0.00 92 1019.3
20210617042602 47 314 0.0 0.0 0.00 0.00 0.00 91 1019.3
20210617042102 47 309 0.0 0.0 0.00 0.00 0.00 91 1019.3
20210617041558 47 313 0.0 0.0 0.00 0.00 0.00 91 1019.2
20210617041055 47 313 0.0 0.0 0.00 0.00 0.00 90 1019.2
20210617040553 47 319 0.0 0.0 0.00 0.00 0.00 90 1019.2
20210617040050 48 323 0.0 0.0 0.00 0.00 0.00 90 1019.1
20210617035546 48 323 0.0 0.0 0.00 0.00 0.00 89 1019.1
20210617035038 48 323 0.0 0.0 0.00 0.00 0.00 89 1019.0
20210617034535 48 321 0.0 0.0 0.00 0.00 0.00 89 1019.1
20210617034026 48 313 0.0 0.0 0.00 0.00 0.00 89 1019.3
20210617033525 48 318 0.0 0.0 0.00 0.00 0.00 88 1019.1
20210617033020 49 323 0.0 0.0 0.00 0.00 0.00 88 1019.0
20210617032519 49 313 0.0 0.0 0.00 0.00 0.00 87 1019.2
20210617032014 49 311 0.0 0.0 0.00 0.00 0.00 87 1019.2
20210617031506 49 313 0.0 0.0 0.00 0.00 0.00 87 1019.2
20210617030958 50 319 0.0 0.0 0.00 0.00 0.00 86 1019.2
20210617030458 50 319 0.0 0.0 0.00 0.00 0.00 85 1019.3
20210617025956 50 323 0.0 0.0 0.00 0.00 0.00 84 1019.1
20210617025451 50 323 0.0 0.0 0.00 0.00 0.00 84 1019.2
20210617024944 50 317 0.0 0.0 0.00 0.00 0.00 83 1019.2
20210617024436 51 314 0.0 0.0 0.00 0.00 0.00 82 1019.4
20210617023936 51 311 0.0 0.0 0.00 0.00 0.00 82 1019.2
20210617023432 51 314 0.0 0.0 0.00 0.00 0.00 82 1019.1
20210617022929 52 311 0.0 0.0 0.00 0.00 0.00 81 1019.2
20210617022426 52 313 0.0 0.0 0.00 0.00 0.00 80 1019.1
20210617021913 52 318 0.0 0.0 0.00 0.00 0.00 79 1019.2
20210617021409 53 321 0.0 0.0 0.00 0.00 0.00 78 1019.1
20210617020908 53 318 0.0 0.0 0.00 0.00 0.00 77 1019.1
20210617020406 53 318 0.0 0.0 0.00 0.00 0.00 77 1019.1
20210617015904 54 318 0.0 0.0 0.00 0.00 0.00 75 1019.1
20210617015403 54 318 0.0 0.0 0.00 0.00 0.00 75 1019.0
20210617014900 55 315 0.0 0.0 0.00 0.00 0.00 73 1019.1
20210617014357 55 314 0.0 0.0 0.00 0.00 0.00 72 1019.3
20210617013853 56 314 0.0 0.0 0.00 0.00 0.00 71 1019.3
20210617013352 56 314 0.0 0.0 0.00 0.00 0.00 69 1019.2
20210617012851 57 313 0.0 0.0 0.00 0.00 0.00 68 1019.0
20210617012341 57 318 0.0 0.0 0.00 0.00 0.00 66 1019.2
20210617011840 58 318 0.0 0.0 0.00 0.00 0.00 65 1018.9
20210617011334 59 313 0.0 0.0 0.00 0.00 0.00 63 1018.9
20210617010829 59 313 0.0 0.0 0.00 0.00 0.00 61 1018.9
20210617010323 60 313 0.0 0.0 0.00 0.00 0.00 58 1019.1
20210617005819 61 322 0.0 0.0 0.00 0.00 0.00 58 1018.9
20210617005313 61 323 0.0 0.0 0.00 0.00 0.00 56 1018.9
20210617004810 62 322 0.0 0.0 0.00 0.00 0.00 54 1018.8
20210617004307 63 321 0.0 0.0 0.00 0.00 0.00 51 1018.9
20210617003802 64 321 0.0 0.0 0.00 0.00 0.00 49 1018.7
20210617003258 64 322 0.0 0.0 0.00 0.00 0.00 45 1018.7
20210617002756 65 318 0.0 0.0 0.00 0.00 0.00 44 1018.6
20210617002249 65 321 0.0 1.0 0.00 0.00 0.00 42 1018.6
20210617001749 66 344 1.0 3.0 0.00 0.00 0.00 43 1018.7
20210617001248 66 321 0.0 1.0 0.00 0.00 0.00 42 1018.7
20210617000746 66 354 1.0 3.0 0.00 0.00 0.00 43 1018.7
20210617000244 66 313 1.0 3.0 0.00 0.00 0.00 43 1018.6
20210616235739 66 356 1.0 1.0 0.00 0.00 0.00 43 1018.6
20210616235239 66 353 3.0 3.0 0.00 0.00 0.00 44 1018.7
20210616234732 66 6 1.0 3.0 0.00 0.00 0.00 42 1018.7
20210616234229 66 329 0.0 3.0 0.00 0.00 0.00 44 1018.7
20210616233725 66 348 1.0 3.0 0.00 0.00 0.00 44 1018.7
20210616233222 67 0 2.0 4.0 0.00 0.00 0.00 42 1018.8
20210616232721 67 11 3.0 4.0 0.00 0.00 0.00 42 1018.7
20210616232220 67 340 4.0 5.0 0.00 0.00 0.00 39 1018.7
20210616231718 68 0 4.0 5.0 0.00 0.00 0.00 39 1018.7
20210616231214 68 16 2.0 5.0 0.00 0.00 0.00 40 1018.8
20210616230710 68 350 3.0 3.0 0.00 0.00 0.00 41 1018.8
20210616230205 68 354 2.0 3.0 0.00 0.00 0.00 42 1018.8
20210616225700 68 319 1.0 1.0 0.00 0.00 0.00 42 1018.5
20210616225158 68 337 1.0 3.0 0.00 0.00 0.00 41 1018.6
20210616224654 67 328 1.0 3.0 0.00 0.00 0.00 41 1018.7
20210616224148 67 5 3.0 7.0 0.00 0.00 0.00 40 1018.8
20210616223638 67 33 3.0 4.0 0.00 0.00 0.00 39 1018.5
20210616223137 68 12 2.0 3.0 0.00 0.00 0.00 39 1018.7
20210616222633 68 2 2.0 5.0 0.00 0.00 0.00 39 1018.6
20210616222129 68 333 3.0 7.0 0.00 0.00 0.00 36 1018.6
20210616221625 68 21 2.0 7.0 0.00 0.00 0.00 37 1018.7
20210616221113 69 6 5.0 8.0 0.00 0.00 0.00 36 1018.7
20210616220608 68 308 3.0 5.0 0.00 0.00 0.00 39 1018.8
20210616220059 68 351 4.0 11.0 0.00 0.00 0.00 37 1018.6
20210616215553 69 6 4.0 7.0 0.00 0.00 0.00 36 1018.7
20210616215048 69 327 2.0 5.0 0.00 0.00 0.00 35 1018.6
20210616214542 69 345 2.0 5.0 0.00 0.00 0.00 37 1018.6
20210616214037 69 12 4.0 7.0 0.00 0.00 0.00 37 1018.7
20210616213530 70 345 4.0 7.0 0.00 0.00 0.00 35 1018.7
20210616213025 70 324 2.0 4.0 0.00 0.00 0.00 37 1018.7
20210616212521 69 323 1.0 3.0 0.00 0.00 0.00 37 1018.7
20210616212020 69 0 3.0 5.0 0.00 0.00 0.00 34 1018.7
20210616211515 69 318 3.0 5.0 0.00 0.00 0.00 34 1018.8
20210616211009 69 342 4.0 5.0 0.00 0.00 0.00 33 1018.7
20210616210509 69 21 3.0 5.0 0.00 0.00 0.00 33 1018.7
20210616210004 70 7 4.0 5.0 0.00 0.00 0.00 34 1018.5
20210616205501 69 319 4.0 5.0 0.00 0.00 0.00 34 1018.6